Tracking 35280 objects as of 7-Sep-2026
HD Live streaming from Space Station
objects crossing your sky now

COSMOS 699 DEB


COSMOS 699 DEB is no longer on orbit


NORAD ID: 8056
Int'l Code: 1974-103AG
Launch date: December 24, 1974
Source: Commonwealth of Independent States (former USSR) (CIS)
Launch site: TYURATAM MISSILE AND SPACE COMPLEX (TTMTR)
Decay date: 1976-03-10

Note: This is SATELLITE DEBRIS
Your satellite tracking list
Your tracking list is empty




NASA's NSSDC Master Catalog

Two Line Element Set (TLE):
1 08056U 74103 AG 76067.93085956  .00190263 +00000-0 +00000-0 0  9996
2 08056 064.9809 242.0879 0000009 117.9120 242.2007 16.17647657061092
Source of the keplerian elements: AFSPC